Torna al catalogo

COSMOS 1642

AttivoNavigazioneLEO
NORAD 15624·PAYLOAD·🇷🇺 Russia

Lanciato Mar 21, 1985 da Plesetsk Cosmodrome

Loading…

Prossimi Passaggi (prossime 24 ore)

TLE

AggiornatoSource: Space-Track

Epoca: Sep 14, 2026, 07:32 UTC

1 15624U 85023H   26257.31438373 -.00000012  00000-0  24061-4 0  9991
2 15624  74.0592   7.7622 0050640  52.6885 334.5890 12.56394437902669

Traccia COSMOS 1642 in tempo reale con AllMySat

Download on the App Store